STARLINK-4599, 53631

Orbit data source: Space-Track

STARLINK-4599, 53631 is a payload satellite owned by SpaceX/Seattle (US) in LEO that was launched on Sun, 28 Aug 2022 UTC via an FALCON 9 launch vehicle from the Air Force Eastern Test Range (AFETR). Payload-class satellites include a variety of spacecraft equipped with specific instruments for various scientific and technological missions. These include communications satellites like Starlink; space stations such as the ISS; scientific satellites like the Hubble; Earth observation satellites from companies like Planet Labs, Umbra, and HawkEye 360; GPS; miniature CubeSats for education and research; and military/defense satellites.

Loading next visibility...
Identifier
53631, 2022-104AV
Orbit
LEO
Country
Flag of USUS
Related business
Manufacturer
SpaceX/Seattle
Mission
Operational Commercial Communications
Bus & Motor
STARLINK, Unknown motor
Mass
300 kg wet, ~290 kg dry
Launch date (UTC)
2022-08-28 (3 years ago)
Launch vehicle
FALCON 9
Launch site
Air Force Eastern Test Range (AFETR)
Object type
Payload
Rocket body
Debris
Shape & HBR
Box + 1 Pan, 10.1 m
Radar Cross Section
13.562 m², Large (>1 m²)

Expand to show TLE details & history
Last TLE update: 22 hours ago

TLE from 22 hours ago
0 STARLINK-4599
1 53631U 22104AV  25347.19267567 -.00000473  00000-0 -11656-4 0  9990
2 53631  53.2184 261.9451 0001304  91.6175 268.4966 15.08834788182709
Epoch: 2025-12-13T04:37Z
TLE epoch observation values (Epoch: 2025-12-13T04:37:27.177Z)
Latitude
-0.00009°
Longitude
110.45833°
Altitude
540.681 km
Speed
7.593 km/s
True Right ascension
17h 27m 46s
True Declination
0° 00' 00"
Sunlit
Object was in daylight at epoch
Visualization orbit readout
Latitude
Unknown
Longitude
Unknown
Altitude
Unknown
Speed
Unknown
Apparent Right ascension
Unknown
Apparent Declination
Unknown
Sunlit
N/A
Visualization observer readout
Local Sidereal Time
01:30:57
Azimuth
Unknown
Elevation
Unknown
Doppler factor
Unknown
Orbital elements
Apogee altitude
540.906 km
Perigee altitude
539.102 km
Semi-major axis
6,918.141 km
Eccentricity
0.00013
Inclination
53.2184°
RAAN
261.9451°
Arg. of periapsis
91.6175°
True anomaly
268.48166°
Mean anomaly
268.4966°
Eccentric anomaly
268.48913°
Mean motion
3.77189 °/min
Orbital period
95.44 mins
BSTAR
-0.000011656
Loading maneuver chart data...
Computing Atmospheric mass density...
Loading historical data...
Loading historical data...
Loading historical data...
Loading historical data...
Loading historical data...
Loading historical data...
Loading historical data...

Documentation

Showing up to 5 results
|